STARLINK-1243 (45234 NORAD) Tracking and Keplerian Element Data

This shows tracking and keplerian element data for the satellite.

Feedback or suggestion? Click here.




ElementValue
Catalog45234
NameSTARLINK-1243
Epoch Orbit2146
Epoch Day187.50002315
Epoch Year2020
RAAN353.5271
Inclination52.9993
Eccentricity0.0001472
Argument of Perigee107.7869
Mean Anonmoly312.7879
Mean Motion15.0559119
Decay Rate6.61E-06
L11 45234U 20012BJ 20187.50002315 .00000661 00000-0 64497-4 0 9994
L22 45234 52.9993 353.5271 0001472 107.7869 312.7879 15.05591190 21461

Live tracking and technical data element details for STARLINK-1243 (NORAD 45234). STARLINK-1243 can be tracked NOW for your location showing map with azimuth and elevation plus other details from your city location.

Track the satellite on the map from your city or location and see movement details for azimuth, elevation, latitude, longitude, range, height, and movement on the map or in text.







IsCatalogInMostPopularTable: catalog: 45234, numindb: 27
Update: records affected: 1



GetName: 45234 STARLINK-1243

Hit Count: updated at: Mon, 06 Jul 2020 05:33:59 GMT